Temperature
28 25 24 25 25 26 26 26 26 27 28 27 26 25 25 25 25 24 24 23 23 23 23 22 22 21 21 21 20 20 20 20 20 19 19 19 19 19 19 19 19 19 18 18
26 25 27 28 28 28 27 26 27 27 28 27 26 25 25 25 25 25 24 24 23 23 23 22 22 22 21 21 21 20 20 20 20 19 19 19 19 19 19 19 19 19 18 18
26 27 29 29 28 28 27 26 27 27 27 27 26 25 25 25 26 25 25 24 24 24 23 23 22 22 22 21 21 21 20 20 20 19 19 19 19 19 19 19 19 19 18 18
27 28 29 29 29 28 27 28 29 28 26 25 25 23 24 24 24 25 25 24 24 24 23 23 23 22 22 22 21 21 21 20 20 20 19 19 19 19 19 19 19 19 18 18
27 29 29 29 29 29 28 29 28 28 25 24 24 23 23 24 24 24 24 24 24 24 24 24 23 23 22 22 22 21 21 21 20 20 20 19 19 19 19 19 19 19 18 18
28 29 29 30 30 30 29 27 26 23 22 23 24 24 23 23 24 24 25 25 25 24 24 24 24 23 23 22 22 21 21 21 20 20 20 19 19 19 19 19 19 18 18 18
27 28 29 30 29 29 28 24 23 23 22 23 24 24 23 25 25 25 25 25 25 25 24 24 23 23 23 22 22 22 21 21 21 20 20 20 19 19 19 19 19 19 18 18
26 26 28 30 29 27 27 24 23 23 23 23 24 24 24 26 26 27 26 26 25 25 25 24 24 23 23 23 22 22 22 21 21 20 20 20 20 19 19 19 19 19 19 18
25 26 29 30 30 28 27 24 23 22 22 22 23 24 25 25 25 25 25 25 24 24 25 25 24 24 23 23 22 22 22 21 21 20 20 20 20 20 19 19 19 19 19 18
26 26 28 29 29 28 27 25 22 22 22 22 23 24 23 24 24 24 24 24 24 24 24 24 24 24 23 23 23 22 22 22 21 21 20 20 20 20 19 19 19 19 18 18
25 25 26 27 28 27 27 26 23 21 21 22 23 23 25 24 23 23 24 24 24 24 24 24 24 24 23 23 22 22 22 22 21 21 20 20 20 20 19 19 19 19 18 18
24 22 23 25 27 28 27 26 23 23 22 21 21 22 25 24 24 24 24 24 25 25 25 24 24 23 23 23 22 22 22 22 21 21 21 20 20 20 19 19 19 19 18 18
25 22 23 24 24 26 27 26 24 22 20 20 21 23 24 23 24 25 24 24 24 25 24 24 24 23 23 23 22 22 22 21 21 21 20 20 20 20 19 19 19 19 18 18
24 21 22 24 24 25 26 26 25 23 21 22 22 23 24 23 23 23 24 24 24 24 24 24 23 23 23 23 22 22 22 21 21 21 20 20 20 20 19 19 19 19 18 18
23 22 23 24 25 26 26 26 26 25 23 23 23 23 24 23 23 24 24 24 24 23 23 24 23 23 23 22 22 22 22 21 21 21 20 20 20 20 19 19 19 19 18 18
20 22 23 24 25 26 26 27 27 26 26 25 24 24 24 24 24 24 24 23 23 23 23 23 23 23 23 22 22 22 21 21 21 21 21 20 20 19 19 19 19 19 18 18
20 21 21 22 23 25 24 25 26 26 25 25 24 24 23 23 23 23 23 23 23 23 23 23 23 23 23 22 22 21 21 21 20 20 20 20 20 19 19 19 19 19 18 18
20 19 18 20 22 23 23 24 26 25 24 24 23 23 23 23 23 24 24 24 23 23 23 23 23 23 23 22 22 22 21 21 20 20 20 20 20 19 19 19 18 18 18 18
19 19 18 18 20 22 23 24 25 24 23 23 23 23 23 23 23 22 23 24 24 24 24 23 23 23 22 22 22 21 21 20 20 20 20 19 19 19 19 19 18 18 18 18
18 18 18 18 21 21 22 24 25 24 22 22 22 22 22 22 20 20 23 23 23 24 23 23 23 22 22 22 21 21 20 20 19 19 19 19 19 19 19 18 18 18 18 18
19 18 18 18 19 20 21 23 24 22 21 22 22 22 22 21 22 22 22 23 23 23 23 23 22 22 22 21 21 20 20 20 19 19 19 18 18 18 18 18 18 18 18 18
18 18 17 17 19 20 21 22 21 20 22 22 22 22 22 22 22 22 22 22 22 22 22 22 22 21 21 21 20 20 20 19 19 19 18 18 18 18 18 18 18 18 18 17
17 18 17 17 18 19 21 22 22 22 22 22 22 22 22 22 21 22 22 22 21 21 21 21 21 21 20 20 20 20 19 19 18 18 18 18 18 18 17 18 17 17 17 17
18 17 17 17 18 19 21 22 22 22 22 22 22 22 21 21 21 21 21 21 21 21 20 20 20 20 20 19 19 19 18 18 18 18 17 17 17 17 17 17 17 17 17 17
18 17 16 17 17 19 20 21 21 22 22 21 21 21 21 21 20 20 20 20 20 20 20 20 19 19 19 19 18 18 18 18 18 17 17 17 17 17 17 17 17 17 16 16
16 17 17 16 18 18 19 21 21 21 21 20 20 20 20 20 20 20 20 20 19 19 19 19 19 18 18 18 18 18 17 17 17 17 17 17 17 17 16 16 16 16 16 16
Wind_Speed
1 3 3 8 8 7 4 2 3 4 3 3 5 9 12 12 12 11 10 11 11 10 9 10 10 9 8 6 6 5 5 4 3 2 2 2 2 2 1 1 3 4 4 5
4 5 10 7 5 4 3 2 2 2 1 3 4 6 9 12 14 15 14 13 12 10 9 9 9 9 8 8 7 6 5 5 4 3 2 2 3 2 2 1 2 3 4 5
7 8 5 4 4 3 3 5 3 3 1 3 5 2 5 6 7 10 11 12 12 14 13 12 11 9 9 9 8 7 5 5 4 4 3 3 3 2 1 1 1 1 3 4
6 7 4 5 4 5 4 6 5 4 4 1 3 2 6 7 7 9 10 10 12 13 12 12 11 11 11 10 8 7 6 6 5 5 5 5 4 3 2 1 1 1 2 3
6 3 3 4 5 5 5 3 4 3 3 2 2 4 5 5 8 10 11 12 12 13 14 14 13 13 11 10 9 8 7 6 5 5 5 5 3 2 1 1 1 1 0 2
8 5 4 5 4 5 4 6 7 6 5 1 3 4 5 7 10 10 10 12 13 13 14 13 11 10 9 9 8 8 7 6 5 5 5 5 5 4 3 2 2 1 0 1
6 7 5 3 1 3 5 7 4 5 5 4 4 2 7 8 9 10 12 12 12 12 12 12 11 11 10 10 10 9 8 7 6 6 5 6 6 5 4 4 3 2 1 1
3 7 5 3 6 5 2 9 7 4 3 4 4 2 6 5 5 7 9 10 11 11 11 12 13 12 12 12 10 10 9 8 6 6 6 5 5 4 3 4 3 3 3 2
6 6 6 4 4 8 3 3 8 7 1 1 4 3 5 4 4 6 8 9 9 9 10 11 11 11 12 12 11 11 10 8 7 7 6 4 4 4 4 3 3 2 2 2
8 4 7 5 3 1 7 7 7 6 4 2 3 2 4 3 3 4 7 8 8 7 8 9 9 10 10 10 9 9 9 8 7 7 6 5 4 4 4 4 4 3 2 2
7 5 6 3 2 4 0 2 5 5 6 6 3 6 6 9 8 7 7 8 9 9 9 9 9 9 9 8 8 8 8 7 6 6 5 5 4 4 4 4 4 3 3 2
4 6 4 7 6 4 5 5 7 5 4 6 5 7 5 8 8 8 6 7 8 9 9 8 9 9 8 8 8 8 7 7 7 6 5 5 4 4 4 4 4 3 3 3
4 6 1 6 7 4 1 1 4 6 5 5 5 6 3 5 6 7 7 7 8 8 7 7 7 9 9 8 8 8 8 7 7 6 6 5 4 4 4 5 4 4 3 3
4 4 7 9 7 4 3 2 2 6 4 5 7 7 4 5 6 7 7 8 8 8 8 7 7 7 8 7 8 8 7 7 7 6 6 6 6 6 5 5 4 4 4 4
5 3 3 5 5 3 3 5 4 4 7 8 9 10 10 11 10 10 10 9 8 6 7 7 7 6 7 6 6 6 6 6 6 6 6 7 6 5 5 5 4 4 4 4
4 3 1 2 2 1 2 4 3 3 3 4 6 6 6 7 7 8 9 10 8 7 7 7 7 7 7 7 6 6 6 6 7 7 6 5 4 5 5 5 5 4 4 4
2 4 3 3 4 3 3 4 2 2 2 5 6 7 5 7 9 11 11 9 9 9 8 7 7 7 7 6 7 6 6 5 5 6 5 4 4 4 5 5 4 5 5 4
5 4 3 1 2 5 9 5 2 2 1 1 3 5 9 10 9 7 9 10 9 8 8 8 7 6 5 4 4 4 4 4 5 4 4 4 4 4 4 4 5 5 4 4
7 7 4 3 3 5 7 4 1 2 2 2 3 7 8 9 8 4 2 7 8 7 7 7 7 6 6 5 5 4 4 4 4 5 5 5 5 4 4 5 6 5 4 4
4 6 6 4 4 6 6 7 3 6 1 4 2 7 7 7 5 4 3 5 6 6 5 6 6 6 5 5 5 5 3 3 4 5 5 5 5 5 5 6 5 4 4 4
3 3 4 4 4 5 6 5 4 4 5 4 2 5 5 5 6 6 6 5 5 5 5 5 6 6 5 5 6 5 3 4 4 3 2 3 4 5 6 5 4 3 3 3
5 4 4 4 4 6 5 2 3 6 4 1 1 3 4 5 6 6 6 7 6 5 5 5 5 5 4 6 6 5 4 4 2 2 2 3 4 5 5 4 4 4 4 4
4 6 6 6 6 5 3 4 5 5 4 2 3 3 6 7 6 5 5 5 5 5 4 4 5 4 3 4 6 5 4 3 2 2 3 4 4 4 4 5 5 4 4 4
3 1 3 1 2 2 1 2 2 3 4 3 4 5 6 6 5 4 4 4 4 3 4 4 5 4 2 2 3 4 4 3 2 2 3 3 4 4 4 3 4 4 4 5
3 1 2 1 2 1 2 1 2 4 5 6 5 4 5 7 6 5 4 4 4 4 3 4 4 3 3 3 3 2 3 3 2 2 2 3 3 4 4 4 4 5 6 6
3 3 4 5 7 4 4 3 3 4 3 5 5 3 2 5 5 4 4 4 5 4 3 3 3 2 2 2 2 2 2 3 2 2 3 3 4 4 4 3 3 4 5 7
Wind_Direction
320 87 222 223 202 191 180 197 238 228 198 139 165 155 167 169 166 166 170 171 172 175 174 164 160 156 149 147 143 145 141 146 131 115 117 117 127 129 115 137 140 141 141 137
1 267 240 226 208 191 166 197 241 327 55 119 138 154 171 173 180 178 178 179 178 172 166 166 162 160 160 162 159 156 153 149 148 151 149 140 136 141 151 160 129 133 140 148
218 242 232 218 205 194 209 190 194 157 55 57 101 100 175 190 181 181 183 181 178 177 174 173 169 169 167 169 169 165 161 153 154 142 120 104 83 62 60 81 110 160 155 154
246 241 226 221 198 166 237 220 174 157 126 241 124 177 236 196 187 188 187 185 185 182 176 175 173 174 176 177 169 162 161 158 157 148 140 139 139 152 183 180 175 165 157 156
256 244 214 220 216 174 214 185 139 162 133 80 69 133 257 190 191 202 195 191 189 184 178 179 180 179 178 173 169 166 161 163 163 156 154 148 145 169 158 136 140 150 163 171
253 265 225 212 219 187 143 67 41 43 69 47 243 154 239 211 199 196 197 193 190 185 181 181 177 169 169 169 168 165 163 173 173 164 156 154 163 170 155 156 169 199 254 265
300 296 268 205 194 343 84 89 39 8 13 265 269 164 239 226 199 188 191 189 184 177 175 173 170 171 172 173 172 171 170 178 180 171 172 175 178 174 175 177 176 174 195 247
232 282 267 218 177 191 190 133 148 179 227 281 323 232 264 238 194 173 169 169 167 168 172 173 174 174 175 175 174 173 176 180 180 178 184 182 178 178 183 181 177 186 205 220
190 248 275 252 196 154 150 155 158 140 171 332 294 300 333 31 87 122 131 134 151 161 168 172 172 173 176 176 178 177 175 176 178 180 179 175 170 171 177 178 176 191 208 210
171 229 281 284 36 30 155 156 105 119 145 243 287 246 220 212 178 141 144 150 156 157 160 164 167 174 177 176 173 169 169 175 179 181 182 182 179 177 174 165 171 182 201 202
161 180 282 330 195 207 53 105 117 126 148 156 214 260 214 189 182 171 170 164 162 159 166 167 167 165 160 157 163 165 167 166 172 176 179 179 178 178 175 179 190 196 203 198
167 147 235 259 256 198 172 180 148 157 203 169 171 256 234 176 167 167 170 162 160 158 162 165 160 153 155 160 164 166 168 169 177 177 176 186 182 174 182 196 206 202 204 207
129 125 161 321 328 348 94 170 148 136 130 155 167 247 246 161 151 167 163 154 152 151 151 154 152 155 162 168 170 169 171 174 178 173 172 181 187 186 196 205 206 203 206 214
116 120 166 198 218 235 270 264 180 132 155 188 202 208 215 186 167 169 159 152 145 144 148 150 150 156 161 167 171 172 178 179 175 173 177 190 202 203 204 205 203 206 206 211
93 134 194 214 218 211 240 243 223 195 187 186 207 195 204 195 180 171 161 148 134 137 144 148 152 155 154 157 168 175 178 179 174 175 189 203 206 202 202 204 208 210 212 220
69 123 111 304 279 305 294 276 251 223 191 188 174 211 212 178 152 144 151 148 149 157 158 156 154 151 156 165 173 175 178 183 177 182 196 205 203 202 204 207 207 204 215 224
84 111 105 262 293 18 277 240 233 247 221 168 185 215 170 141 153 162 161 158 163 166 164 163 161 162 166 171 170 179 185 177 176 188 197 201 199 204 207 203 199 209 218 221
142 120 131 173 53 225 241 250 203 137 34 101 152 158 159 158 161 157 157 162 168 166 163 162 158 157 157 154 151 162 164 168 179 191 198 206 210 212 212 208 216 222 221 220
155 142 131 137 189 261 296 310 353 121 347 350 134 139 140 125 94 63 141 154 159 161 164 164 160 156 148 149 150 144 164 180 188 199 211 211 205 210 217 224 227 226 220 224
98 120 131 141 172 216 248 288 325 100 7 321 107 144 150 126 128 203 181 138 130 132 129 137 135 132 143 161 148 139 164 182 208 217 221 218 208 211 219 227 225 223 220 226
72 81 140 166 205 248 260 291 50 115 227 272 137 140 145 155 175 177 146 124 126 119 119 125 129 142 167 163 145 151 170 201 219 224 227 227 224 219 220 222 225 225 218 226
165 151 172 157 188 246 278 53 137 204 224 182 105 107 114 119 123 129 128 130 130 124 126 127 132 146 157 153 150 161 195 219 218 220 235 238 236 234 232 227 231 226 216 226
172 180 177 181 208 240 258 164 175 158 127 102 98 91 108 111 117 123 124 130 130 131 130 130 129 134 139 154 158 174 211 214 217 242 251 252 251 244 237 225 224 228 223 227
299 88 113 108 237 240 38 75 91 111 115 110 108 109 108 114 119 115 126 128 123 115 116 118 114 120 136 153 162 186 204 196 195 242 267 265 257 259 252 232 220 221 227 229
261 68 105 166 245 46 4 44 116 77 81 83 70 76 115 122 122 129 141 144 143 135 130 132 136 143 172 173 174 187 185 172 182 232 264 271 254 243 241 240 231 226 227 221
234 187 173 211 220 183 217 216 138 107 98 110 101 69 97 124 131 132 148 150 144 142 137 133 138 150 180 177 193 205 195 178 181 234 262 269 271 254 239 242 270 265 251 250
Height
1495 1502 1508 1504 1502 1503 1506 1511 1514 1506 1498 1502 1507 1510 1510 1511 1512 1514 1516 1517 1518 1519 1521 1522 1524 1525 1525 1526 1526 1527 1527 1527 1527 1526 1526 1526 1526 1527 1527 1528 1528 1529 1529 1529
1502 1505 1495 1493 1495 1498 1504 1511 1511 1504 1498 1502 1509 1511 1509 1509 1510 1510 1512 1514 1516 1518 1520 1522 1523 1524 1524 1525 1525 1526 1526 1527 1527 1527 1527 1527 1527 1527 1528 1528 1528 1529 1529 1530
1504 1497 1489 1492 1496 1499 1503 1508 1508 1509 1503 1503 1510 1518 1513 1510 1510 1511 1512 1512 1514 1516 1518 1520 1521 1522 1523 1524 1525 1525 1526 1527 1527 1528 1528 1528 1528 1528 1528 1529 1529 1529 1530 1530
1496 1489 1490 1493 1494 1497 1507 1496 1496 1502 1512 1521 1517 1537 1520 1512 1511 1510 1510 1512 1513 1514 1516 1518 1519 1520 1522 1523 1524 1525 1526 1526 1527 1527 1528 1528 1528 1529 1529 1529 1529 1529 1530 1530
1494 1487 1489 1492 1490 1490 1495 1489 1494 1500 1511 1522 1520 1533 1526 1512 1513 1509 1507 1508 1510 1511 1513 1515 1517 1518 1520 1522 1524 1525 1526 1526 1527 1528 1528 1529 1529 1529 1530 1530 1530 1530 1530 1530
1488 1483 1484 1484 1482 1483 1486 1494 1501 1510 1520 1536 1524 1530 1528 1514 1507 1504 1504 1505 1506 1508 1510 1513 1515 1518 1520 1522 1523 1524 1525 1526 1527 1528 1528 1529 1529 1529 1530 1530 1529 1530 1530 1530
1493 1485 1480 1479 1485 1486 1490 1512 1535 1539 1546 1542 1522 1525 1521 1500 1496 1497 1499 1501 1503 1506 1508 1511 1514 1516 1518 1520 1522 1523 1524 1525 1526 1527 1528 1528 1529 1529 1529 1529 1529 1529 1529 1529
1506 1505 1483 1478 1483 1492 1494 1508 1536 1550 1551 1542 1525 1526 1511 1493 1491 1493 1495 1499 1502 1505 1507 1509 1511 1514 1516 1518 1520 1522 1523 1524 1525 1527 1527 1528 1528 1529 1529 1529 1529 1529 1529 1529
1503 1502 1479 1475 1475 1482 1495 1505 1509 1530 1536 1543 1534 1519 1505 1494 1494 1494 1496 1500 1502 1504 1505 1507 1510 1512 1515 1517 1518 1520 1521 1523 1524 1526 1527 1527 1527 1527 1527 1528 1528 1528 1528 1528
1487 1497 1483 1476 1475 1478 1484 1493 1512 1527 1544 1551 1537 1527 1522 1506 1501 1497 1497 1499 1501 1503 1505 1506 1509 1511 1513 1515 1517 1519 1521 1522 1524 1525 1525 1526 1526 1527 1527 1526 1526 1526 1526 1526
1480 1496 1492 1484 1485 1489 1489 1495 1506 1521 1528 1544 1547 1532 1499 1498 1496 1496 1496 1497 1499 1501 1503 1505 1507 1509 1512 1514 1516 1517 1519 1521 1522 1523 1524 1524 1525 1525 1525 1525 1525 1525 1525 1525
1477 1492 1502 1491 1478 1474 1480 1488 1501 1519 1526 1529 1536 1526 1488 1490 1490 1492 1494 1496 1497 1499 1501 1504 1505 1507 1510 1512 1514 1516 1518 1519 1520 1521 1522 1523 1523 1524 1524 1524 1524 1524 1523 1523
1476 1493 1509 1507 1496 1484 1483 1485 1491 1502 1516 1526 1532 1518 1488 1488 1489 1491 1492 1493 1495 1498 1500 1502 1504 1506 1508 1510 1512 1514 1516 1517 1518 1520 1521 1521 1521 1522 1522 1522 1522 1522 1521 1521
1470 1489 1502 1509 1502 1490 1488 1486 1486 1498 1515 1518 1513 1505 1493 1489 1488 1489 1490 1491 1494 1496 1498 1500 1502 1504 1506 1508 1510 1512 1514 1515 1517 1518 1518 1519 1519 1519 1520 1520 1520 1520 1519 1519
1472 1488 1487 1486 1482 1480 1482 1483 1483 1489 1495 1504 1499 1495 1488 1485 1484 1484 1487 1489 1493 1496 1497 1499 1500 1503 1505 1507 1509 1511 1512 1513 1514 1515 1516 1516 1517 1517 1518 1517 1517 1517 1517 1516
1475 1485 1486 1486 1479 1479 1481 1478 1478 1480 1482 1486 1487 1487 1478 1479 1481 1484 1486 1489 1491 1494 1495 1497 1499 1501 1503 1505 1506 1508 1509 1510 1512 1512 1513 1514 1514 1515 1515 1515 1515 1514 1514 1514
1480 1486 1494 1498 1486 1484 1492 1480 1478 1479 1476 1478 1485 1481 1476 1479 1481 1483 1485 1487 1489 1491 1493 1495 1496 1498 1500 1502 1504 1506 1507 1508 1509 1510 1511 1511 1511 1511 1511 1512 1512 1511 1511 1511
1480 1487 1497 1500 1495 1505 1488 1470 1469 1472 1474 1472 1472 1472 1473 1475 1478 1481 1482 1484 1487 1489 1491 1492 1494 1496 1499 1501 1502 1504 1505 1506 1507 1507 1508 1508 1509 1508 1508 1508 1508 1508 1508 1508
1470 1482 1496 1504 1505 1497 1481 1470 1470 1474 1479 1472 1472 1473 1474 1476 1479 1484 1484 1484 1485 1487 1489 1491 1493 1495 1497 1499 1500 1501 1503 1503 1504 1505 1505 1505 1505 1505 1505 1504 1504 1504 1504 1504
1470 1475 1491 1500 1502 1504 1487 1469 1465 1469 1483 1473 1471 1472 1474 1475 1484 1485 1483 1484 1485 1486 1488 1490 1492 1493 1495 1496 1497 1499 1500 1501 1501 1502 1502 1502 1502 1501 1501 1501 1501 1501 1500 1500
1481 1484 1491 1497 1499 1491 1475 1466 1465 1486 1487 1474 1472 1471 1472 1473 1475 1478 1480 1482 1484 1485 1487 1489 1490 1491 1492 1494 1495 1496 1497 1497 1498 1498 1498 1498 1498 1498 1497 1497 1497 1497 1496 1496
1482 1488 1492 1495 1500 1494 1469 1466 1473 1477 1472 1471 1472 1471 1472 1472 1474 1477 1479 1480 1483 1484 1486 1487 1488 1489 1490 1492 1493 1493 1494 1495 1495 1495 1495 1494 1494 1494 1494 1493 1493 1493 1492 1492
1476 1476 1480 1483 1484 1473 1468 1467 1468 1469 1470 1470 1471 1472 1472 1473 1475 1477 1479 1480 1482 1483 1484 1485 1486 1487 1488 1490 1491 1491 1492 1492 1492 1492 1492 1491 1491 1490 1490 1489 1489 1489 1488 1488
1471 1468 1472 1476 1473 1470 1468 1468 1469 1469 1470 1470 1471 1472 1473 1474 1476 1478 1479 1480 1481 1482 1483 1484 1485 1486 1487 1488 1489 1489 1490 1490 1489 1489 1488 1488 1487 1486 1486 1486 1485 1485 1484 1483
1470 1469 1472 1473 1470 1469 1468 1468 1469 1469 1470 1471 1472 1474 1475 1475 1476 1478 1479 1479 1480 1481 1483 1484 1484 1484 1485 1486 1486 1487 1487 1487 1487 1486 1485 1485 1484 1483 1482 1482 1481 1480 1480 1479
1467 1468 1471 1472 1467 1467 1467 1468 1467 1468 1469 1470 1472 1474 1475 1475 1476 1477 1477 1478 1479 1480 1481 1482 1482 1483 1483 1484 1484 1484 1484 1484 1483 1483 1482 1481 1480 1479 1478 1478 1477 1476 1476 1475